Location: St. Louis
(38.6270°N, 90.1994°W)
Time: 00:06:59
(UTC-06:00)

FALCONSAT 3 - Visible Passes

Search period start: 27 January 2022 00:00
Search period end: 06 February 2022 00:00
Orbit: 430 x 434 km, 35.4° (Epoch: 26 January)

Date Brightness Start Highest point End Pass type
(mag) Time Alt. Az. Time Alt. Az. Time Alt. Az.
27 Jan ? 05:29:25 35° SSW 05:29:29 35° SSW 05:32:40 10° SE visible
28 Jan ? 04:46:57 17° SE 04:46:57 17° SE 04:47:58 10° ESE visible
28 Jan ? 06:20:26 10° WSW 06:22:34 15° SSW 06:24:41 10° SSE visible
29 Jan ? 05:37:40 19° SSW 05:37:49 19° SSW 05:40:18 10° SSE visible
30 Jan ? 04:55:14 13° SSE 04:55:14 13° SSE 04:55:45 10° SSE visible
